TIME,PRES,T(CTD),SAL,OXYGEN,RAWTEMP,T(OPTODE),TCPHASE,CHECK
1342818441,305.4599914550781000,17.7593994140625000,36.5126991271972660,223.3524017333984400,266.6671142578125000,17.7679691314697270,31.2765007019042970,42992
1342818509,299.1799926757812500,17.8085002899169920,36.5205001831054700,223.7030944824218800,265.0069885253906000,17.8189105987548830,31.2357501983642580,17987
1342818572,293.3200073242187500,17.8805999755859380,36.5336990356445300,224.4714965820312500,262.5439147949219000,17.8945007324218750,31.1623592376709000,10158
1342818635,287.6300048828125000,17.9288005828857420,36.5410995483398440,224.7700958251953000,261.1405944824219000,17.9375495910644530,31.1278991699218750,20119
1342818707,281.3500061035156000,17.9428997039794920,36.5430984497070300,224.7590942382812500,260.6184082031250000,17.9535694122314450,31.1212902069091800,9964
1342818780,275.2200012207031000,17.9941005706787100,36.5497016906738300,224.1941070556640600,258.9471130371094000,18.0048503875732420,31.1270503997802730,13387
1342818852,269.1900024414062500,18.0172996520996100,36.5513000488281250,223.7749938964843800,258.2591857910156000,18.0259609222412100,31.1389007568359380,16364
1342818924,263.2200012207031000,18.0365009307861330,36.5499000549316400,222.5612030029297000,258.0191040039062500,18.0333194732666000,31.1978206634521500,1612
1342818997,257.2200012207031000,18.0459003448486330,36.5456008911132800,220.2247009277343800,256.4825134277344000,18.0804595947265620,31.2977695465087900,64638
1342819074,250.3099975585937500,18.1154994964599600,36.5503997802734400,219.4671936035156200,255.1529998779297000,18.1212501525878900,31.3189792633056640,20594
1342819139,243.7700042724609400,18.1786994934082030,36.5606994628906250,219.0711059570312500,253.2803039550781200,18.1786994934082030,31.3139190673828120,46128
1342819195,237.8999938964843800,18.2042999267578120,36.5592994689941400,218.6616973876953000,252.1540985107422000,18.2132492065429700,31.3199291229248050,20354
1342819249,232.1900024414062500,18.2490005493164060,36.5611000061035160,219.2716979980468800,250.5914001464843800,18.2611808776855470,31.2665405273437500,37727
1342819345,222.3200073242187500,18.3421993255615230,36.5731010437011700,217.6264953613281200,247.4421997070312500,18.3577709197998050,31.3092708587646500,19515
1342819407,216.5000000000000000,18.4009990692138670,36.5817985534668000,214.9772949218750000,245.7442016601562500,18.4098606109619140,31.4268703460693360,1611
1342819473,210.4900054931640600,18.4486007690429700,36.5872001647949200,214.0406036376953000,244.0829010009765600,18.4608097076416000,31.4542503356933600,25378
1342819536,204.6100006103515600,18.4848995208740230,36.5890007019043000,216.0453033447265600,243.0847015380859400,18.4914207458496100,31.3333091735839840,49858
1342819601,198.3500061035156200,18.4274005889892580,36.5513000488281250,222.1244964599609400,244.7030029296875000,18.4417896270751950,31.0376796722412100,6486
1342819664,192.2200012207031200,18.4785995483398440,36.5535011291503900,224.9015045166015600,242.9423065185547000,18.4957904815673830,30.8722896575927730,10232
1342819730,185.8600006103515600,18.4806995391845700,36.5369987487793000,229.8536987304687500,243.1829071044922000,18.4884109497070300,30.6278190612792970,57083
1342819793,179.6699981689453000,18.5986003875732420,36.5602989196777340,227.6820983886718800,239.2792053222656200,18.6081409454345700,30.6827392578125000,15490
1342819849,174.1300048828125000,18.6333999633789060,36.5535011291503900,226.1293029785156200,238.0563049316406200,18.6456394195556640,30.7438106536865230,49812
1342819912,168.0099945068359400,18.7052001953125000,36.5623016357421900,226.5368957519531200,236.1284942626953000,18.7047691345214840,30.6972808837890620,3562
1342819977,161.7799987792968800,18.7749004364013670,36.5680999755859400,227.0413970947265600,233.9438934326172000,18.7717609405517580,30.6425800323486330,19100
1342820040,155.8099975585937500,18.7275009155273440,36.5415992736816400,231.7550048828125000,234.8338012695312500,18.7444705963134770,30.4219703674316400,54809
1342820096,150.5299987792968800,18.8360004425048830,36.5507011413574200,229.7756042480468800,231.7160949707031200,18.8400802612304700,30.4769306182861330,30656
1342820169,143.9400024414062500,18.8894996643066400,36.5502014160156250,232.2086944580078000,229.3784027099609400,18.9117794036865230,30.3268604278564450,48963
1342820234,138.1100006103515600,18.9519996643066400,36.5495986938476560,233.6551971435547000,227.8645019531250000,18.9582004547119140,30.2364196777343750,59294
1342820297,132.5700073242187500,19.0142993927001950,36.5574989318847660,234.3222045898437500,225.9358978271484400,19.0173492431640620,30.1786193847656250,16983
1342820372,126.1900024414062500,19.0422000885009770,36.5573005676269500,234.4671020507812500,225.2756042480468800,19.0375995635986330,30.1627998352050780,30707
1342820435,120.8000030517578100,19.1007995605468750,36.5556983947753900,238.1947937011718800,223.0664062500000000,19.1053504943847660,29.9565200805664060,8440
1342820509,114.6100006103515600,19.1639995574951170,36.5605010986328100,239.2998962402343800,221.0106964111328000,19.1683902740478500,29.8773708343505860,51586
1342820582,108.9300003051757800,19.1525001525878900,36.5531997680664060,240.5046997070312500,220.7935028076172000,19.1750507354736330,29.8183193206787100,41163
1342820665,102.7200012207031200,19.2201995849609380,36.5592002868652340,242.3885040283203000,219.1029052734375000,19.2269001007080080,29.7090606689453120,39734
1342820781,93.4800033569336000,19.2632007598876950,36.5586013793945300,244.1638946533203000,217.4465942382812500,19.2776908874511720,29.6060295104980470,17266
1342820851,86.5899963378906200,19.3300991058349600,36.5611991882324200,244.6484069824218800,215.4190979003906200,19.3398704528808600,29.5571193695068360,545
1342820908,80.7500000000000000,19.4155998229980470,36.5726013183593750,246.7151947021484400,212.7861938476562500,19.4206295013427730,29.4291400909423830,10441
1342820961,74.9499969482421900,19.5037994384765620,36.5735015869140600,247.4407043457031200,209.3594055175781200,19.5257301330566400,29.3517494201660160,12444
1342821015,69.1699981689453100,19.6184997558593750,36.5830001831054700,253.4983978271484400,206.1302032470703000,19.6247692108154300,29.0426101684570300,15464
1342821093,61.5400009155273440,19.8659000396728500,36.5875015258789060,258.2250976562500000,197.9019012451172000,19.8771800994873050,28.7334499359130860,23960
1342821164,55.9900016784668000,20.0421009063720700,36.5842018127441400,261.9392089843750000,192.0588989257812500,20.0564498901367200,28.5025997161865230,33448
1342821257,50.4900016784668000,20.3805999755859380,36.5872993469238300,264.9132080078125000,181.8027038574218800,20.3711891174316400,28.2491798400878900,20150
1342821407,44.7400016784668000,21.1415996551513670,36.5936012268066400,266.6571044921875000,154.8278045654297000,21.1996898651123050,27.8386802673339840,40141
1342821561,38.6599998474121100,22.3052005767822270,36.5359001159668000,261.7481994628906000,117.6032028198242200,22.3453502655029300,27.5754699707031250,9961
1342821678,31.6100006103515620,23.4869003295898440,36.4649009704589840,255.7315063476562500,77.7869033813476600,23.5752201080322270,27.3339195251464840,27897
1342821765,25.3700008392334000,24.5401992797851560,36.4021987915039060,248.7727050781250000,45.8664016723632800,24.5655994415283200,27.2372303009033200,36047
1342821839,19.3999996185302730,25.7978992462158200,36.3644981384277340,240.9138946533203000,7.1025700569152830,25.7748908996582030,27.1053695678710940,60974
1342821942,13.4499998092651370,26.8887996673584000,36.3711013793945300,232.2108001708984400,-27.6159191131591800,26.8652896881103500,27.0715293884277340,59358
1342822053,6.9800000190734860,27.7467002868652340,36.4068984985351560,226.7563018798828000,-55.6817893981933600,27.7525691986084000,26.9806404113769530,9153
1342822160,1.7599999904632568,0.0000000000000000,0.0000000000000000,224.3701019287109400,-71.9791793823242200,28.2704391479492200,26.8937606811523440,4270
